ECHOSTAR 23 (42070 NORAD) Tracking and Keplerian Element Data

This shows tracking and keplerian element data for the satellite.

Feedback or suggestion? Click here.




ElementValue
Catalog42070
NameECHOSTAR 23
Epoch Orbit616
Epoch Day318.97464846
Epoch Year2018
RAAN279.955
Inclination0.0197
Eccentricity0.0002198
Argument of Perigee313.9752
Mean Anonmoly126.0495
Mean Motion1.00269867
Decay Rate-2.72E-06
L11 42070U 17014A 18318.97464846 -.00000272 00000-0 00000-0 0 9997
L22 42070 0.0197 279.9550 0002198 313.9752 126.0495 1.00269867 6168

Live tracking and technical data element details for ECHOSTAR 23 (NORAD 42070). ECHOSTAR 23 can be tracked NOW for your location showing map with azimuth and elevation plus other details from your city location.

Track the satellite on the map from your city or location and see movement details for azimuth, elevation, latitude, longitude, range, height, and movement on the map or in text.







IsCatalogInMostPopularTable: catalog: 42070, numindb: 159
Update: records affected: 1



GetName: 42070 ECHOSTAR 23

Hit Count: updated at: Fri, 16 Nov 2018 09:50:31 GMT